This is the latest recevied weather packets stored in our database for station/object IW1QLH-13. If no packets are shown the sender has not sent any weather packets the latest 10 day(s).
| Time | Temp. | Humidity | Pressure | Rain* | Wind** | Luminosity | Snow |
|---|---|---|---|---|---|---|---|
| 1777732438 | 21.67° C | 39% | 1015.4 hPa | - | - | 657 W/m² | - |
| 1777731808 | 21.67° C | 38% | 1015.5 hPa | - | - | 629 W/m² | - |
| 1777731178 | 20.56° C | 40% | 1015.8 hPa | - | - | 657 W/m² | - |
| 1777730549 | 20.56° C | 39% | 1015.9 hPa | - | - | 614 W/m² | - |
| 1777729918 | 21.67° C | 37% | 1016.2 hPa | - | - | 672 W/m² | - |
| 1777729288 | 21.67° C | 35% | 1016.3 hPa | - | - | 715 W/m² | - |
| 1777728656 | 21.67° C | 35% | 1016.3 hPa | - | - | 786 W/m² | - |
| 1777728025 | 22.78° C | 35% | 1016.4 hPa | - | - | 900 W/m² | - |
| 1777727394 | 22.78° C | 32% | 1016.5 hPa | - | - | 943 W/m² | - |
| 1777726764 | 22.78° C | 30% | 1016.6 hPa | - | - | 972 W/m² | - |
| 1777726134 | 22.78° C | 34% | 1016.7 hPa | - | - | 972 W/m² | - |
| 1777725504 | 22.78° C | 32% | 1016.7 hPa | - | - | 972 W/m² | - |
| 1777724874 | 22.78° C | 32% | 1016.8 hPa | - | - | 972 W/m² | - |
| 1777724245 | 22.78° C | 34% | 1017 hPa | - | - | 986 W/m² | - |
| 1777723614 | 22.78° C | 34% | 1017 hPa | - | - | 958 W/m² | - |
| 1777722985 | 21.67° C | 35% | 1017.2 hPa | - | - | 972 W/m² | - |
| 1777722355 | 22.78° C | 32% | 1017.3 hPa | - | - | 972 W/m² | - |
| 1777721725 | 22.78° C | 33% | 1017.4 hPa | - | - | 972 W/m² | - |
| 1777721096 | 21.67° C | 35% | 1017.4 hPa | - | - | 886 W/m² | - |
| 1777720466 | 22.78° C | 32% | 1017.4 hPa | - | - | 929 W/m² | - |
| 1777719837 | 21.67° C | 35% | 1017.5 hPa | - | - | 943 W/m² | - |
| 1777719207 | 22.78° C | 34% | 1017.7 hPa | - | - | 900 W/m² | - |
| 1777718578 | 22.78° C | 34% | 1017.8 hPa | - | - | 886 W/m² | - |
| 1777717945 | 22.78° C | 33% | 1018 hPa | - | - | 872 W/m² | - |
| 1777717313 | 22.78° C | 34% | 1018 hPa | - | - | 858 W/m² | - |
* Rain since midnight (hover to see other rain measurements)
** Current wind speed in m/s (hover to see current wind gust speed)